This is the latest recevied weather packets stored in our database for station/object KJ5EHN. If no packets are shown the sender has not sent any weather packets the latest 10 day(s).
| Time | Temp. | Humidity | Pressure | Rain* | Wind** | Luminosity | Snow |
|---|---|---|---|---|---|---|---|
| 1777832625 | 27.22° C | 40% | 1019.2 hPa | 0 mm | - | - | - |
| 1777832322 | 27.22° C | 40% | 1019.2 hPa | 0 mm | - | - | - |
| 1777832019 | 27.22° C | 41% | 1019.3 hPa | 0 mm | - | - | - |
| 1777831716 | 26.67° C | 41% | 1019.5 hPa | 0 mm | - | - | - |
| 1777831414 | 26.67° C | 42% | 1019.6 hPa | 0 mm | - | - | - |
| 1777831110 | 26.67° C | 41% | 1019.8 hPa | 0 mm | - | - | - |
| 1777830808 | 26.67° C | 42% | 1019.6 hPa | 0 mm | - | - | - |
| 1777830503 | 26.67° C | 43% | 1019.6 hPa | 0 mm | - | - | - |
| 1777830202 | 26.67° C | 43% | 1019.6 hPa | 0 mm | - | - | - |
| 1777829897 | 26.67° C | 43% | 1019.8 hPa | 0 mm | - | - | - |
| 1777829593 | 26.11° C | 43% | 1020 hPa | 0 mm | - | - | - |
| 1777829290 | 26.67° C | 45% | 1019.9 hPa | 0 mm | - | - | - |
| 1777828988 | 26.11° C | 44% | 1020 hPa | 0 mm | - | - | - |
| 1777828684 | 26.11° C | 44% | 1020.1 hPa | 0 mm | - | - | - |
| 1777828381 | 25.56° C | 44% | 1020.2 hPa | 0 mm | - | - | - |
| 1777828078 | 26.11° C | 45% | 1020.5 hPa | 0 mm | - | - | - |
| 1777827774 | 26.11° C | 44% | 1020.5 hPa | 0 mm | - | - | - |
| 1777827472 | 26.11° C | 45% | 1020.6 hPa | 0 mm | - | - | - |
| 1777827169 | 26.11° C | 45% | 1020.4 hPa | 0 mm | - | - | - |
| 1777826864 | 25.56° C | 45% | 1020.4 hPa | 0 mm | - | - | - |
| 1777826563 | 25.56° C | 46% | 1020.6 hPa | 0 mm | - | - | - |
| 1777826258 | 25.56° C | 46% | 1020.7 hPa | 0 mm | - | - | - |
| 1777825957 | 25° C | 45% | 1020.7 hPa | 0 mm | - | - | - |
| 1777825653 | 25° C | 47% | 1020.6 hPa | 0 mm | - | - | - |
| 1777825351 | 25° C | 45% | 1020.8 hPa | 0 mm | - | - | - |
* Rain latest hour (hover to see other rain measurements)
** Current wind speed in m/s (hover to see current wind gust speed)